Location: Darlington Observatory
(36.4817°N, 105.8156°W)
Time: 07:33:12
(UTC-06:00)

Daily predictions for brighter satellites

Satellite Brightness Start Highest point End
(mag) Time Altitude Azimuth Time Altitude Azimuth Time Altitude Azimuth
Cosmos 1354 Rocket 4.0 20:10:41 10° NNW 20:15:57 70° ENE 20:21:09 10° SSE
Cosmos 1862 4.3 20:13:20 10° NNE 20:16:54 29° ENE 20:20:28 10° SE
FREGAT/IRIS 4.4 20:16:29 10° SSW 20:19:16 34° W 20:22:05 10° NNW
Cosmos 2263 Rocket 2.5 20:19:46 10° N 20:25:11 50° ENE 20:30:35 10° SE
Meteor 1-29 4.3 20:22:43 10° NE 20:25:20 20° E 20:27:55 10° SE
Envisat 4.0 20:21:04 10° SE 20:25:23 29° ENE 20:29:42 10° N
Helios 1A 3.9 20:25:59 10° SE 20:29:45 32° ENE 20:33:33 10° N
OAO 3 Rocket 3.4 20:25:29 10° W 20:30:17 64° S 20:34:50 12° ESE
Cosmos 1733 Rocket 3.3 20:29:33 10° N 20:33:55 51° E 20:38:14 10° SSE
SEDSat Delta rocket 3.8 20:30:27 10° WSW 20:35:05 48° S 20:39:50 13° ESE
Cosmos 2322 Rocket 3.2 20:30:48 10° SW 20:36:14 52° WNW 20:41:44 10° NNE
Cosmos 1825 2.1 20:32:57 10° N 20:36:46 83° E 20:40:34 10° S
Cosmos 1867 4.3 20:31:51 10° NNW 20:36:55 37° NE 20:41:15 13° ESE
Cosmos 1408 2.6 20:34:45 10° N 20:38:26 88° W 20:42:03 10° S
H-2A R/B 3.5 20:36:08 10° S 20:39:55 54° W 20:43:43 10° NNW
ALOS 3.8 20:35:49 10° SSW 20:40:09 38° W 20:44:30 10° NNW
Cosmos 1939 Rocket 4.0 20:38:03 13° SE 20:40:57 27° ENE 20:44:21 10° NNE
Meteor 2-20 Rocket 4.5 20:34:57 10° N 20:41:06 89° E 20:47:15 10° S
Cosmos 1862 Rocket 3.5 20:37:56 10° S 20:42:21 72° E 20:46:50 10° NNE
Cosmos 2026 Rocket 4.0 20:36:52 10° N 20:43:06 86° E 20:49:11 10° S
Cosmos 2360 Rocket 2.2 20:37:34 10° S 20:43:08 66° ESE 20:48:46 10° NNE
ERS-1 Rocket 4.4 20:41:59 13° ESE 20:44:52 21° ENE 20:48:30 10° NNE
Sakura Rocket 3.9 20:45:54 10° SW 20:48:55 24° S 20:50:43 18° SE
COSMOS 2428 3.4 20:44:21 10° SSE 20:49:16 31° ESE 20:54:13 10° NE
Atlas Centaur 2 2.9 20:46:56 10° WSW 20:52:56 52° S 20:58:45 17° ESE
ATLAS 5 CENTAUR R/B 2.6 20:48:13 10° NNW 20:54:17 65° ENE 20:59:24 17° SE
USA 186 2.1 20:57:13 10° S 20:59:57 55° W 21:02:54 10° NNW
NOSS 3-1 (C) 4.1 20:55:19 10° SSE 21:00:04 28° ESE 21:05:10 10° NE
Cosmos 1703 Rocket 3.9 20:59:40 13° SSE 21:03:18 42° E 21:07:29 10° NNE
Cosmos 2322 3.7 20:57:46 10° SSW 21:03:28 84° ESE 21:09:12 10° NNE
Milstar 3 3.7 20:57:29 10° W 21:05:26 38° SSW 21:09:37 19° SE
USA 229 DEB 3.6 20:59:53 10° SSW 21:06:42 86° ESE 21:13:39 10° NNE
USA 229 3.6 21:00:00 10° SSW 21:06:49 85° ESE 21:13:45 10° NNE
SL-16 R/B 4.3 21:03:02 10° WSW 21:07:56 29° WNW 21:12:52 10° N
Lacrosse 4 Rocket 3.5 21:04:44 10° NW 21:08:21 25° WSW 21:12:00 10° SSW
Helios 1B rocket 2.6 21:05:56 10° N 21:10:01 74° WNW 21:14:06 10° SSW
YAOGAN 6 3.4 21:09:21 29° ESE 21:10:12 33° ENE 21:13:28 10° N
Meteor 1-14 Rocket 4.5 21:10:52 10° N 21:16:27 52° ENE 21:19:39 25° SE
NOSS 3-1 (A) 4.1 21:16:00 25° SE 21:17:20 28° ESE 21:22:24 10° NE
Cosmos 2237 Rocket 3.8 21:24:38 16° ENE 21:24:38 16° ENE 21:26:39 10° ENE
Cosmos 2333 4.2 21:20:12 10° S 21:25:47 59° ESE 21:31:26 10° NNE
Cosmos 1844 Rocket 3.5 21:21:07 10° N 21:26:10 34° ENE 21:27:55 28° E
Cosmos 2333 Rocket 3.0 21:28:14 30° ESE 21:28:27 30° ESE 21:33:24 10° NE
Cosmos 2278 Rocket 4.0 21:26:34 10° NNE 21:29:59 16° NE 21:31:26 15° ENE
Meteor 2-10 Rocket 4.1 21:24:40 10° SSW 21:30:27 66° W 21:36:12 10° N
Cosmos 2266 Rocket 4.0 21:26:08 10° N 21:32:28 73° E 21:36:19 25° SSE
Cosmos 2221 Rocket 3.4 21:30:33 30° S 21:32:38 70° E 21:37:02 10° NNE
CZ-4B DEB 3.8 21:32:57 29° SSW 21:34:00 40° W 21:36:53 10° NNW
Cosmos 2219 Rocket 2.2 21:43:24 35° SSE 21:45:30 54° ESE 21:50:59 10° NNE
H-2A R/B 4.4 21:47:46 12° NE 21:47:46 12° NE 21:48:49 10° NE
Cosmos 968 Rocket 4.0 21:42:01 10° NNW 21:47:06 55° WSW 21:49:50 26° S
FALCON 9 R/B 3.2 21:53:41 10° W 21:53:56 12° W 21:53:56 12° W
Cosmos 1782 3.0 22:00:01 62° NNE 22:00:01 62° NNE 22:03:27 10° N
USA 234 3.2 22:02:14 45° ESE 22:04:27 74° NE 22:10:58 10° NW
Cosmos 1553 Rocket 4.3 22:06:14 44° E 22:06:19 44° E 22:12:10 10° NNE
Cosmos 2263 Rocket 4.4 22:04:50 10° WNW 22:08:38 19° W 22:12:25 10° SW
SL-08 RB Rocket 4.1 22:11:21 52° NE 22:11:21 52° NE 22:15:15 10° N
Cosmos 1782 Rocket 4.3 22:06:34 10° NNW 22:10:48 49° W 22:11:35 44° SW
Okean 1-7 4.1 22:10:04 28° SW 22:11:57 44° W 22:16:10 10° N
H-2A R/B 2.5 22:18:33 46° NE 22:18:33 46° NE 22:22:42 10° N
MetOp-B 4.2 22:19:35 60° SSW 22:20:25 70° WSW 22:25:47 10° NNW
SeaSat 1 3.0 22:21:33 46° NE 22:21:33 46° NE 22:25:55 10° NNW
USA 245 3.9 22:20:53 79° S 22:21:14 88° WSW 22:26:06 10° NNW
Meteor 1-27 Rocket 3.9 22:22:18 57° ENE 22:22:18 57° ENE 22:27:12 10° NNE
ERS-1 Rocket 3.9 22:22:00 34° SW 22:23:19 41° W 22:28:03 10° NNW
SPOT 5 2.9 22:27:47 70° WNW 22:27:47 70° WNW 22:32:07 10° NNW
CZ-4C R/B 3.3 22:21:07 10° NNW 22:28:06 49° NE 22:29:38 44° E
Cosmos 1570 Rocket 4.2 22:27:42 52° SW 22:28:47 66° WNW 22:34:03 10° NNE
Okean 2 Rocket 4.0 22:24:47 10° NNW 22:29:05 44° W 22:29:12 44° W
COSMOS 2428 4.3 22:28:21 10° SW 22:33:25 33° WNW 22:38:32 10° N
S3M 3.8 22:38:14 78° E 22:38:14 78° E 22:44:20 10° N
ATLAS 5 CENTAUR R/B 4.3 22:34:06 10° WNW 22:38:38 21° WSW 22:40:58 17° SW
Cosmos 1980 3.7 22:39:48 80° NNW 22:39:48 80° NNW 22:45:15 10° NNE
ARGOS 3.5 22:41:38 58° WSW 22:41:44 58° W 22:47:03 10° NNW
Atlas Centaur 2 3.3 22:35:30 10° W 22:41:23 45° SSW 22:41:23 45° SSW
Cosmos 1844 3.9 22:39:42 10° NNW 22:45:01 65° W 22:45:01 65° W
ASTEX 1 4.2 22:47:35 46° N 22:47:35 46° N 22:51:08 10° N
SL-16 R/B 4.0 22:49:41 21° NE 22:49:41 21° NE 22:51:38 10° NE
Meteor 1-11 Rocket 3.9 22:46:38 10° N 22:51:20 65° N 22:51:20 65° N
Cosmos 1898 Rocket 4.4 22:57:12 10° NNW 23:00:45 43° N 23:00:45 43° N
Terra 3.2 23:07:06 36° N 23:07:06 36° N 23:09:55 10° N
Cosmos 2237 Rocket 2.8 23:06:21 53° WNW 23:06:25 53° WNW 23:12:00 10° NNE
NOSS 3-1 (A) 4.4 23:03:02 13° WSW 23:07:52 42° NW 23:13:55 10° NNE
ATLAS 2AS CENTAUR R/B 3.8 23:11:17 37° ENE 23:11:17 37° ENE 23:16:14 10° NE
Cosmos 1844 Rocket 4.1 23:05:10 10° NW 23:09:36 29° W 23:09:36 29° W
Cosmos 2333 Rocket 3.6 23:10:05 24° WSW 23:12:34 34° WNW 23:17:48 10° N
Cosmos 1745 Rocket 4.2 23:07:18 10° N 23:13:05 68° NW 23:13:05 68° NW
Cosmos 2278 Rocket 2.9 23:08:59 10° NNW 23:13:17 51° NW 23:13:17 51° NW
H-2A R/B 4.3 23:24:53 23° NNW 23:24:53 23° NNW 23:26:43 10° NNW
Cosmos 2219 Rocket 4.5 23:25:48 10° WSW 23:29:48 20° NW 23:33:51 10° N
ATLAS 3B R/B 3.9 23:30:33 10° NNW 23:36:21 29° NE 23:36:24 29° NE
